Columbia Owens, SC

2:28 PM EDT on April 25, 2018 (GMT -0400)
Columbia Owens Downtown

Weather History for KCUB - February, 2013

Change the Weather History Date:

Tuesday, February 26, 2013

  Actual Average Record
Temperature  
Mean Temperature 48 °F 52 °F  
Max Temperature 56 °F 63 °F 75 °F (2001)
Min Temperature 39 °F 40 °F 33 °F (1999)
Degree Days  
Heating Degree Days 17 13  
Month to date heating degree days 438 410  
Since 1 July heating degree days 1628 1902  
Cooling Degree Days 0 0  
Month to date cooling degree days 0 0  
Year to date cooling degree days 24 1  
Moisture  
Dew Point 43 °F    
Average Humidity 92    
Maximum Humidity 100    
Minimum Humidity 53    
Precipitation  
Precipitation 1.20 in 0.15 in 1.59 in (2004)
Month to date precipitation 5.21 3.36  
Year to date precipitation 6.63 6.99  
Sea Level Pressure  
Sea Level Pressure 29.76 in    
Wind  
Wind Speed 4 mph (North)    
Max Wind Speed 14 mph    
Max Gust Speed 17 mph    
Visibility 6 miles    
Events Rain    
T = Trace of Precipitation, MM = Missing Value Source: NWS Daily Summary

Daily Weather History Graph

Daily Weather History Graph

Search for Another Location

Airport or City:

Astronomy

Feb. 26, 2013 Rise Set
Actual Time 6:56 AM EST 6:18 PM EST
Civil Twilight 6:30 AM EST 6:43 PM EST
Nautical Twilight 6:01 AM EST 7:12 PM EST
Astronomical Twilight 5:32 AM EST 7:41 PM EST
Moon 7:27 PM EST (2/26) 7:02 AM EST (2/26)
Length of Visible Light 12h 12m
Length of Day
11h 22m
Full, 99% of the Moon is Illuminated
Feb 26
Full
Mar 4
Last Quarter
Mar 11
New
Mar 19
First Quarter
Mar 27
Full

Hourly Weather History & Observations

Time (EST) Temp. Windchill Dew Point Humidity Pressure Visibility Wind Dir Wind Speed Gust Speed Precip Events Conditions
12:53 AM 42.1 °F 39.2 °F 32.0 °F 67% 30.01 in 8.0 mi ENE 4.6 mph - 0.00 in   Overcast
1:53 AM 39.9 °F 36.7 °F 35.1 °F 83% 29.99 in 6.0 mi ENE 4.6 mph - 0.00 in   Haze
2:25 AM 39.2 °F 35.9 °F 37.4 °F 93% 29.95 in 4.0 mi Variable 4.6 mph - 0.01 in Rain Light Rain
2:53 AM 39.0 °F 35.7 °F 37.0 °F 93% 29.94 in 5.0 mi Variable 4.6 mph - 0.02 in Rain Light Rain
3:07 AM 39.2 °F 35.0 °F 37.4 °F 93% 29.93 in 3.0 mi ENE 5.8 mph - 0.02 in Rain Rain
3:53 AM 39.9 °F 36.7 °F 37.9 °F 93% 29.91 in 4.0 mi ENE 4.6 mph - 0.07 in Rain Light Rain
4:53 AM 39.9 °F 37.8 °F 37.9 °F 93% 29.88 in 4.0 mi Variable 3.5 mph - 0.07 in Rain Rain
5:53 AM 39.9 °F 37.8 °F 37.9 °F 93% 29.86 in 5.0 mi Variable 3.5 mph - 0.07 in Rain Light Rain
6:37 AM 39.2 °F 34.2 °F 39.2 °F 100% 29.83 in 2.0 mi ENE 6.9 mph - 0.15 in Rain Heavy Rain
6:50 AM 39.2 °F 37.0 °F 39.2 °F 100% 29.81 in 4.0 mi Variable 3.5 mph - 0.18 in Rain Rain
6:53 AM 39.9 °F 36.7 °F 39.0 °F 97% 29.81 in 4.0 mi Variable 4.6 mph - 0.19 in Rain Rain
7:53 AM 41.0 °F 39.0 °F 39.9 °F 96% 29.86 in 1.5 mi WNW 3.5 mph - 0.35 in Rain Heavy Rain
8:03 AM 41.0 °F 38.0 °F 39.2 °F 93% 29.83 in 1.5 mi NE 4.6 mph - 0.06 in Rain Heavy Rain
8:36 AM 41.0 °F - 39.2 °F 93% 29.83 in 1.2 mi Calm Calm - 0.29 in Rain Rain
8:41 AM 42.8 °F - 39.2 °F 87% 29.83 in 1.8 mi Calm Calm - 0.30 in Rain Rain
8:48 AM 42.8 °F 39.3 °F 41.0 °F 93% 29.81 in 3.0 mi ENE 5.8 mph - 0.32 in Rain Rain
8:53 AM 42.1 °F 40.2 °F 41.0 °F 96% 29.82 in 4.0 mi Variable 3.5 mph - 0.32 in Rain Light Rain
9:53 AM 43.0 °F 38.8 °F 42.1 °F 97% 29.75 in 8.0 mi ENE 6.9 mph - 0.04 in Rain Light Rain
10:20 AM 44.6 °F 42.2 °F 44.6 °F 100% 29.74 in 10.0 mi East 4.6 mph - 0.01 in   Overcast
10:53 AM 46.9 °F - 45.0 °F 93% 29.70 in 2.5 mi Variable 3.5 mph - 0.06 in Rain Rain
11:02 AM 48.2 °F - 46.4 °F 93% 29.70 in 5.0 mi Calm Calm - 0.00 in Rain Light Rain
11:53 AM 50.0 °F - 48.0 °F 93% 29.65 in 10.0 mi ENE 4.6 mph - 0.00 in   Overcast
12:10 PM 50.0 °F - 48.2 °F 94% 29.63 in 10.0 mi Calm Calm - N/A   Overcast
12:53 PM 52.0 °F - 51.1 °F 97% 29.59 in 7.0 mi SW 5.8 mph - 0.01 in   Overcast
1:53 PM 53.1 °F - 52.0 °F 96% 29.60 in 3.0 mi Calm Calm - N/A   Overcast
2:53 PM 55.9 °F - 54.0 °F 93% 29.58 in 4.0 mi Calm Calm - N/A   Overcast
3:53 PM 54.0 °F - 52.0 °F 93% 29.60 in 3.0 mi NW 5.8 mph - N/A   Overcast
4:49 PM 55.4 °F - 51.8 °F 88% 29.60 in 9.0 mi WNW 4.6 mph - N/A   Overcast
4:53 PM 55.0 °F - 53.1 °F 93% 29.59 in 9.0 mi WNW 5.8 mph - N/A   Overcast
5:53 PM 52.0 °F - 48.9 °F 89% 29.62 in 10.0 mi WNW 8.1 mph - N/A   Overcast
6:53 PM 51.1 °F - 48.9 °F 92% 29.64 in 10.0 mi Variable 4.6 mph - N/A   Overcast
7:53 PM 50.0 °F - 46.9 °F 89% 29.68 in 10.0 mi WNW 5.8 mph - N/A   Overcast
8:53 PM 50.0 °F - 46.9 °F 89% 29.70 in 10.0 mi Variable 5.8 mph - N/A   Overcast
9:53 PM 48.9 °F - 45.0 °F 86% 29.72 in 10.0 mi NW 4.6 mph - N/A   Mostly Cloudy
10:53 PM 48.0 °F - 45.0 °F 89% 29.75 in 10.0 mi West 6.9 mph - N/A   Mostly Cloudy
11:06 PM 48.2 °F - 44.6 °F 87% 29.74 in 10.0 mi West 5.8 mph - N/A   Overcast
11:53 PM 46.9 °F - 44.1 °F 90% 29.75 in 10.0 mi Calm Calm - N/A   Clear